DAL88L KMCO-MYNN

Flight info

Callsign DAL88L
Flight time 0h 52m
Altitude 33000
Route DDANY3 JIPOD DCT JUNIP DCT ZFP BR63V ZQA
Aircraft A320/M-SDE3FGHIRWY/LB1

Departure

Time 2026-04-20 23:32
Airport Orlando International Airport (KMCO)

Arrival

Time 2026-04-21 00:25
Airport Lynden Pindling International Airport (MYNN)
Time Latitude Longitude Altitude Speed Heading
2026-04-20 22:40 28.42520 -81.30017 103 ft 0 kts 357°
2026-04-20 23:19 28.42519 -81.30017 103 ft 2 kts 357°
2026-04-20 23:19 28.42502 -81.30016 101 ft 3 kts 355°
2026-04-20 23:20 28.42485 -81.30019 102 ft 2 kts 25°
2026-04-20 23:20 28.42469 -81.30027 102 ft 2 kts 25°
2026-04-20 23:20 28.42454 -81.30035 102 ft 2 kts 25°
2026-04-20 23:20 28.42440 -81.30047 102 ft 2 kts 56°
2026-04-20 23:21 28.42431 -81.30065 101 ft 3 kts 78°
2026-04-20 23:21 28.42430 -81.30074 103 ft 0 kts 92°
2026-04-20 23:25 28.42430 -81.30068 103 ft 5 kts 92°
2026-04-20 23:26 28.42446 -81.29969 101 ft 20 kts 63°
2026-04-20 23:26 28.42559 -81.29879 103 ft 20 kts 18°
2026-04-20 23:26 28.42589 -81.29859 103 ft 0 kts 54°
2026-04-20 23:27 28.42591 -81.29857 103 ft 3 kts 57°
2026-04-20 23:27 28.42580 -81.29807 103 ft 12 kts 136°
2026-04-20 23:27 28.42497 -81.29795 103 ft 12 kts 179°
2026-04-20 23:27 28.42401 -81.29794 103 ft 19 kts 179°
2026-04-20 23:28 28.42216 -81.29793 102 ft 24 kts 179°
2026-04-20 23:28 28.42024 -81.29790 101 ft 31 kts 180°
2026-04-20 23:28 28.41839 -81.29788 102 ft 25 kts 180°
2026-04-20 23:28 28.41668 -81.29786 102 ft 24 kts 175°
2026-04-20 23:29 28.41505 -81.29784 102 ft 23 kts 178°
2026-04-20 23:29 28.41354 -81.29783 101 ft 21 kts 179°
2026-04-20 23:29 28.41186 -81.29781 101 ft 27 kts 179°
2026-04-20 23:29 28.40993 -81.29779 100 ft 28 kts 179°
2026-04-20 23:30 28.40833 -81.29756 99 ft 17 kts 115°
2026-04-20 23:30 28.40821 -81.29674 99 ft 11 kts 90°
2026-04-20 23:30 28.40821 -81.29660 100 ft 0 kts 89°
2026-04-20 23:30 28.40821 -81.29659 100 ft 1 kts 89°
2026-04-20 23:31 28.40825 -81.29593 98 ft 15 kts 74°
2026-04-20 23:31 28.40906 -81.29560 98 ft 8 kts
2026-04-20 23:31 28.40923 -81.29560 98 ft 0 kts
2026-04-20 23:32 28.41032 -81.29560 100 ft 47 kts
2026-04-20 23:32 28.41609 -81.29562 106 ft 115 kts 359°
2026-04-20 23:32 28.42588 -81.29561 151 ft 162 kts
2026-04-20 23:32 28.43679 -81.29522 999 ft 154 kts
2026-04-20 23:33 28.44724 -81.29460 1712 ft 149 kts
2026-04-20 23:33 28.45801 -81.29209 1912 ft 171 kts 31°
2026-04-20 23:33 28.46611 -81.28233 2482 ft 169 kts 54°
2026-04-20 23:33 28.47258 -81.27116 3106 ft 168 kts 55°
2026-04-20 23:34 28.47902 -81.25981 3580 ft 177 kts 55°
2026-04-20 23:34 28.48613 -81.24767 3926 ft 193 kts 54°
2026-04-20 23:34 28.49404 -81.23460 4279 ft 209 kts 53°
2026-04-20 23:34 28.50236 -81.22017 4607 ft 229 kts 64°
2026-04-20 23:35 28.50632 -81.20179 4952 ft 254 kts 78°
2026-04-20 23:35 28.50991 -81.15969 5033 ft 273 kts 100°
2026-04-20 23:35 28.50507 -81.13870 5559 ft 277 kts 102°
2026-04-20 23:36 28.50018 -81.11729 6356 ft 282 kts 103°
2026-04-20 23:36 28.49531 -81.09558 7114 ft 286 kts 102°
2026-04-20 23:36 28.49033 -81.07374 7822 ft 292 kts 106°
2026-04-20 23:36 28.48198 -81.05253 8550 ft 297 kts 122°
2026-04-20 23:37 28.46863 -81.03413 9326 ft 301 kts 139°
2026-04-20 23:37 28.45226 -81.01908 10050 ft 305 kts 142°
2026-04-20 23:37 28.43530 -81.00374 10519 ft 319 kts 142°
2026-04-20 23:37 28.41773 -80.98776 10870 ft 336 kts 142°
2026-04-20 23:38 28.39879 -80.97050 11213 ft 353 kts 142°
2026-04-20 23:38 28.37927 -80.95269 11660 ft 365 kts 142°
2026-04-20 23:38 28.35936 -80.93454 12289 ft 370 kts 142°
2026-04-20 23:38 28.33918 -80.91615 12936 ft 374 kts 142°
2026-04-20 23:39 28.31918 -80.89795 13556 ft 379 kts 142°
2026-04-20 23:39 28.29855 -80.87832 14179 ft 384 kts 137°
2026-04-20 23:39 28.28102 -80.85521 14696 ft 390 kts 126°
2026-04-20 23:39 28.26764 -80.82878 15233 ft 395 kts 114°
2026-04-20 23:40 28.25720 -80.79980 15770 ft 399 kts 112°
2026-04-20 23:40 28.24660 -80.77003 16299 ft 404 kts 112°
2026-04-20 23:40 28.23596 -80.74040 16843 ft 408 kts 112°
2026-04-20 23:40 28.22516 -80.71048 17382 ft 412 kts 113°
2026-04-20 23:41 28.21424 -80.68030 17911 ft 417 kts 113°
2026-04-20 23:41 28.20345 -80.64994 18426 ft 421 kts 112°
2026-04-20 23:41 28.19289 -80.61875 18878 ft 426 kts 111°
2026-04-20 23:41 28.18253 -80.58717 19343 ft 430 kts 111°
2026-04-20 23:42 28.17221 -80.55520 19809 ft 433 kts 111°
2026-04-20 23:42 28.16184 -80.52300 20278 ft 437 kts 111°
2026-04-20 23:42 28.15128 -80.49049 20737 ft 441 kts 111°
2026-04-20 23:42 28.14053 -80.45777 21212 ft 445 kts 111°
2026-04-20 23:43 28.12958 -80.42478 21669 ft 449 kts 111°
2026-04-20 23:43 28.11854 -80.39161 22131 ft 453 kts 112°
2026-04-20 23:43 28.10553 -80.35914 22572 ft 454 kts 121°
2026-04-20 23:43 28.08798 -80.32936 23004 ft 454 kts 132°
2026-04-20 23:44 28.06640 -80.30323 23416 ft 453 kts 142°
2026-04-20 23:44 28.04157 -80.28148 23821 ft 451 kts 152°
2026-04-20 23:44 28.01507 -80.26223 24154 ft 454 kts 152°
2026-04-20 23:44 27.98847 -80.24291 24511 ft 456 kts 152°
2026-04-20 23:45 27.96167 -80.22338 24863 ft 459 kts 152°
2026-04-20 23:45 27.93486 -80.20379 25211 ft 461 kts 153°
2026-04-20 23:45 27.90788 -80.18408 25541 ft 463 kts 153°
2026-04-20 23:45 27.88075 -80.16427 25869 ft 465 kts 153°
2026-04-20 23:46 27.85354 -80.14443 26193 ft 467 kts 153°
2026-04-20 23:46 27.82609 -80.12445 26513 ft 469 kts 153°
2026-04-20 23:46 27.79860 -80.10447 26820 ft 472 kts 153°
2026-04-20 23:46 27.77094 -80.08437 27126 ft 474 kts 153°
2026-04-20 23:47 27.74311 -80.06419 27430 ft 476 kts 153°
2026-04-20 23:47 27.71518 -80.04398 27731 ft 478 kts 153°
2026-04-20 23:47 27.68712 -80.02370 28023 ft 480 kts 153°
2026-04-20 23:47 27.65894 -80.00331 28310 ft 482 kts 154°
2026-04-20 23:48 27.63060 -79.98280 28591 ft 484 kts 154°
2026-04-20 23:48 27.60221 -79.96224 28873 ft 486 kts 154°
2026-04-20 23:48 27.58334 -79.94857 29049 ft 488 kts 154°
2026-04-20 23:48 27.55476 -79.92784 29311 ft 490 kts 154°
2026-04-20 23:49 27.52603 -79.90701 29566 ft 492 kts 154°
2026-04-20 23:49 27.49724 -79.88611 29813 ft 494 kts 154°
2026-04-20 23:49 27.46788 -79.86485 30054 ft 495 kts 154°
2026-04-20 23:49 27.43920 -79.84420 30273 ft 497 kts 154°
2026-04-20 23:50 27.41004 -79.82325 30465 ft 499 kts 154°
2026-04-20 23:50 27.38036 -79.80194 30656 ft 500 kts 154°
2026-04-20 23:50 27.35137 -79.78109 30834 ft 502 kts 154°
2026-04-20 23:50 27.32199 -79.75993 31079 ft 501 kts 154°
2026-04-20 23:51 27.29227 -79.73852 31351 ft 500 kts 154°
2026-04-20 23:51 27.26397 -79.71644 31616 ft 505 kts 147°
2026-04-20 23:51 27.23759 -79.68928 31883 ft 512 kts 138°
2026-04-20 23:51 27.21479 -79.65827 32107 ft 516 kts 131°
2026-04-20 23:52 27.19307 -79.62608 32339 ft 517 kts 131°
2026-04-20 23:52 27.17132 -79.59402 32588 ft 516 kts 131°
2026-04-20 23:52 27.14977 -79.56241 32829 ft 516 kts 132°
2026-04-20 23:52 27.12792 -79.53043 33060 ft 516 kts 132°
2026-04-20 23:53 27.10609 -79.49850 33155 ft 512 kts 132°
2026-04-20 23:53 27.06304 -79.43542 33174 ft 508 kts 132°
2026-04-20 23:54 27.02008 -79.37246 33166 ft 508 kts 132°
2026-04-20 23:54 26.97740 -79.31009 33165 ft 508 kts 132°
2026-04-20 23:55 26.93426 -79.24721 33164 ft 508 kts 132°
2026-04-20 23:55 26.89113 -79.18440 33166 ft 508 kts 132°
2026-04-20 23:56 26.84799 -79.12155 33169 ft 508 kts 132°
2026-04-20 23:56 26.80487 -79.05880 33174 ft 509 kts 132°
2026-04-20 23:57 26.76193 -78.99654 33170 ft 509 kts 132°
2026-04-20 23:57 26.71859 -78.93385 33165 ft 509 kts 132°
2026-04-20 23:58 26.67529 -78.87115 33161 ft 509 kts 132°
2026-04-20 23:58 26.63205 -78.80865 33161 ft 510 kts 132°
2026-04-20 23:59 26.58859 -78.74582 33156 ft 510 kts 132°
2026-04-20 23:59 26.54510 -78.68326 33172 ft 510 kts 133°
2026-04-21 00:00 26.50107 -78.62099 33158 ft 511 kts 133°
2026-04-21 00:00 26.45676 -78.55893 33156 ft 511 kts 133°
2026-04-21 00:01 26.41243 -78.49690 33155 ft 511 kts 133°
2026-04-21 00:01 26.36825 -78.43479 33154 ft 511 kts 133°
2026-04-21 00:02 26.32406 -78.37264 33150 ft 511 kts 133°
2026-04-21 00:02 26.30185 -78.34154 32972 ft 513 kts 133°
2026-04-21 00:02 26.27969 -78.31055 32715 ft 510 kts 133°
2026-04-21 00:02 26.25764 -78.27967 32456 ft 508 kts 133°
2026-04-21 00:03 26.23570 -78.24891 32206 ft 505 kts 133°
2026-04-21 00:03 26.21393 -78.21843 31960 ft 502 kts 133°
2026-04-21 00:03 26.19220 -78.18808 31713 ft 500 kts 133°
2026-04-21 00:03 26.17058 -78.15791 31467 ft 497 kts 133°
2026-04-21 00:04 26.14917 -78.12799 31013 ft 492 kts 133°
2026-04-21 00:04 26.12789 -78.09828 30457 ft 490 kts 134°
2026-04-21 00:04 26.10669 -78.06874 29859 ft 487 kts 133°
2026-04-21 00:04 26.08562 -78.03942 29310 ft 483 kts 133°
2026-04-21 00:05 26.06473 -78.01040 28761 ft 478 kts 133°
2026-04-21 00:05 26.04400 -77.98166 28232 ft 474 kts 133°
2026-04-21 00:05 26.02348 -77.95318 27695 ft 471 kts 133°
2026-04-21 00:05 26.00308 -77.92488 27186 ft 467 kts 133°
2026-04-21 00:06 25.98286 -77.89687 26672 ft 463 kts 132°
2026-04-21 00:06 25.96283 -77.86909 26161 ft 459 kts 132°
2026-04-21 00:06 25.94292 -77.84147 25673 ft 455 kts 132°
2026-04-21 00:06 25.92322 -77.81415 25190 ft 451 kts 132°
2026-04-21 00:07 25.90368 -77.78704 24710 ft 448 kts 132°
2026-04-21 00:07 25.88423 -77.76013 24235 ft 445 kts 131°
2026-04-21 00:07 25.86491 -77.73342 23759 ft 442 kts 131°
2026-04-21 00:07 25.84575 -77.70691 23228 ft 439 kts 131°
2026-04-21 00:08 25.82672 -77.68067 22757 ft 434 kts 131°
2026-04-21 00:08 25.80786 -77.65471 22288 ft 431 kts 131°
2026-04-21 00:08 25.78912 -77.62887 21807 ft 428 kts 131°
2026-04-21 00:08 25.77053 -77.60320 21327 ft 425 kts 131°
2026-04-21 00:09 25.75203 -77.57768 20838 ft 423 kts 131°
2026-04-21 00:09 25.73362 -77.55236 20357 ft 421 kts 131°
2026-04-21 00:09 25.71489 -77.52749 19856 ft 417 kts 137°
2026-04-21 00:09 25.69292 -77.50709 19374 ft 410 kts 151°
2026-04-21 00:10 25.66781 -77.49276 18891 ft 401 kts 164°
2026-04-21 00:10 25.64141 -77.48502 18409 ft 382 kts 177°
2026-04-21 00:10 25.61601 -77.48281 17898 ft 365 kts 182°
2026-04-21 00:10 25.59083 -77.48130 17396 ft 353 kts 181°
2026-04-21 00:11 25.56676 -77.47977 16978 ft 339 kts 181°
2026-04-21 00:11 25.54348 -77.47827 16580 ft 331 kts 181°
2026-04-21 00:11 25.52061 -77.47683 16191 ft 330 kts 181°
2026-04-21 00:11 25.49764 -77.47543 15785 ft 330 kts 181°
2026-04-21 00:12 25.47480 -77.47404 15383 ft 327 kts 181°
2026-04-21 00:12 25.45254 -77.47268 15003 ft 324 kts 181°
2026-04-21 00:12 25.43014 -77.47131 14599 ft 322 kts 181°
2026-04-21 00:12 25.40780 -77.46992 14109 ft 321 kts 181°
2026-04-21 00:13 25.38554 -77.46856 13519 ft 320 kts 180°
2026-04-21 00:13 25.36357 -77.46721 12912 ft 315 kts 180°
2026-04-21 00:13 25.34147 -77.46587 12065 ft 319 kts 180°
2026-04-21 00:13 25.31921 -77.46453 11241 ft 322 kts 179°
2026-04-21 00:14 25.29690 -77.46510 10426 ft 320 kts 195°
2026-04-21 00:14 25.27673 -77.47459 9589 ft 314 kts 219°
2026-04-21 00:14 25.26222 -77.49201 8728 ft 309 kts 243°
2026-04-21 00:14 25.25573 -77.51418 7877 ft 303 kts 268°
2026-04-21 00:15 25.25817 -77.53696 7067 ft 299 kts 288°
2026-04-21 00:15 25.26467 -77.55874 6239 ft 298 kts 291°
2026-04-21 00:15 25.27267 -77.57983 5388 ft 296 kts 305°
2026-04-21 00:15 25.28641 -77.59638 4550 ft 293 kts 320°
2026-04-21 00:16 25.30183 -77.61111 3724 ft 291 kts 321°
2026-04-21 00:16 25.31706 -77.62545 3152 ft 280 kts 320°
2026-04-21 00:16 25.32902 -77.64158 2718 ft 269 kts 296°
2026-04-21 00:16 25.33269 -77.66143 2276 ft 263 kts 268°
2026-04-21 00:17 25.32724 -77.68012 2023 ft 252 kts 240°
2026-04-21 00:17 25.31546 -77.69522 2004 ft 264 kts 218°
2026-04-21 00:17 25.29958 -77.70509 2010 ft 264 kts 197°
2026-04-21 00:17 25.28169 -77.70834 2013 ft 260 kts 177°
2026-04-21 00:18 25.26455 -77.70491 2001 ft 240 kts 156°
2026-04-21 00:18 25.25045 -77.69629 2013 ft 233 kts 138°
2026-04-21 00:18 25.23883 -77.68397 2014 ft 229 kts 132°
2026-04-21 00:18 25.22798 -77.67188 2012 ft 214 kts 131°
2026-04-21 00:19 25.21790 -77.66063 2012 ft 203 kts 131°
2026-04-21 00:19 25.20793 -77.64948 2025 ft 199 kts 131°
2026-04-21 00:19 25.19869 -77.63920 2030 ft 179 kts 131°
2026-04-21 00:19 25.19043 -77.63000 2009 ft 160 kts 130°
2026-04-21 00:20 25.18259 -77.62125 2015 ft 160 kts 130°
2026-04-21 00:20 25.17480 -77.61255 2004 ft 157 kts 131°
2026-04-21 00:20 25.16715 -77.60401 2019 ft 157 kts 130°
2026-04-21 00:20 25.15943 -77.59540 2014 ft 157 kts 130°
2026-04-21 00:21 25.15180 -77.58691 2038 ft 154 kts 131°
2026-04-21 00:21 25.14420 -77.57844 2027 ft 155 kts 130°
2026-04-21 00:21 25.13679 -77.57019 2027 ft 153 kts 131°
2026-04-21 00:21 25.12917 -77.56170 2014 ft 154 kts 130°
2026-04-21 00:22 25.12175 -77.55344 1888 ft 153 kts 130°
2026-04-21 00:22 25.11422 -77.54507 1730 ft 151 kts 130°
2026-04-21 00:22 25.10682 -77.53682 1544 ft 151 kts 130°
2026-04-21 00:22 25.09941 -77.52858 1351 ft 151 kts 130°
2026-04-21 00:23 25.09197 -77.52031 1153 ft 151 kts 130°
2026-04-21 00:23 25.08470 -77.51222 963 ft 150 kts 130°
2026-04-21 00:23 25.07736 -77.50391 787 ft 149 kts 130°
2026-04-21 00:23 25.06993 -77.49592 603 ft 149 kts 132°
2026-04-21 00:24 25.06267 -77.48793 409 ft 148 kts 127°
2026-04-21 00:24 25.05546 -77.47972 205 ft 147 kts 128°
2026-04-21 00:24 25.04824 -77.47175 29 ft 144 kts 125°
2026-04-21 00:24 25.04289 -77.46569 24 ft 70 kts 135°
2026-04-21 00:25 25.04153 -77.46379 21 ft 15 kts 110°
2026-04-21 00:25 25.04125 -77.46307 13 ft 0 kts 120°
2026-04-21 00:26 25.04119 -77.46293 23 ft 7 kts 111°
2026-04-21 00:26 25.04104 -77.46211 23 ft 8 kts 82°
2026-04-21 00:27 25.04158 -77.46186 22 ft 12 kts 352°
2026-04-21 00:27 25.04234 -77.46250 22 ft 14 kts 315°
2026-04-21 00:27 25.04300 -77.46323 22 ft 13 kts 315°
2026-04-21 00:27 25.04361 -77.46392 22 ft 12 kts 314°
2026-04-21 00:28 25.04407 -77.46444 25 ft 7 kts 315°
2026-04-21 00:28 25.04484 -77.46529 24 ft 16 kts 316°
2026-04-21 00:28 25.04573 -77.46531 22 ft 15 kts 36°
2026-04-21 00:28 25.04661 -77.46474 22 ft 15 kts 50°
2026-04-21 00:29 25.04693 -77.46432 22 ft 0 kts 50°
2026-04-21 00:35 -33.77428 151.13153 2637 ft 164 kts 168°
2026-04-21 00:35 -33.77275 151.13107 3001 ft 172 kts 168°
2026-04-21 00:36 -33.77088 151.13059 2963 ft 167 kts 168°
2026-04-21 00:36 51.15589 0.03675 1942 ft 172 kts 307°
2026-04-21 00:36 -33.77088 151.13059 2963 ft 166 kts 168°
2026-04-21 00:36 -33.87237 151.15683 1227 ft 131 kts 170°
2026-04-21 00:37 -33.90212 151.16447 417 ft 140 kts 168°
2026-04-21 00:37 -33.77088 151.13059 3017 ft 152 kts 168°